Luverne, MN

9:01 PM CST on January 20, 2017 (GMT -0600)
Luverne

Weather History for KLYV - January, 2013

Change the Weather History Date:

Friday, January 11, 2013

  Actual Average (KPQN) Record (KPQN)
Temperature  
Mean Temperature 29 °F -  
Max Temperature 35 °F 21 °F 44 °F (2002)
Min Temperature 21 °F 6 °F -14 °F (1997)
Degree Days  
Heating Degree Days 36    
Moisture  
Dew Point 31 °F    
Average Humidity 94    
Maximum Humidity 100    
Minimum Humidity 86    
Precipitation  
Precipitation 0.00 in - - ()
Sea Level Pressure  
Sea Level Pressure 29.46 in    
Wind  
Wind Speed 11 mph (SSW)    
Max Wind Speed 29 mph    
Max Gust Speed 36 mph    
Visibility 2 miles    
Events Fog , Rain , Snow    
Averages and records for this station are not official NWS values.
T = Trace of Precipitation, MM = Missing Value Source: NWS Daily Summary

Daily Weather History Graph

Daily Weather History Graph

Search for Another Location

Airport or City:

Trip Planner

Search our weather history database for the weather conditions in past years. The results will help you decide how hot, cold, wet, or windy it might be!

Date:

Astronomy

Jan. 11, 2013 Rise Set
Actual Time 7:56 AM CST 5:09 PM CST
Civil Twilight 7:24 AM CST 5:41 PM CST
Nautical Twilight 6:49 AM CST 6:17 PM CST
Astronomical Twilight 6:14 AM CST 6:51 PM CST
Moon 7:29 AM CST (1/11) 5:30 PM CST (1/11)
Length of Visible Light 10h 16m
Length of Day
9h 12m
Waning Crescent, 0% of the Moon is Illuminated
Jan 11
Waning Crescent
Jan 11
New
Jan 18
First Quarter
Jan 26
Full
Feb 3
Last Quarter

Hourly Weather History & Observations

Time (CST) Temp. Windchill Dew Point Humidity Pressure Visibility Wind Dir Wind Speed Gust Speed Precip Events Conditions
12:15 AM 33.8 °F 24.8 °F 32.0 °F 93% 29.60 in 1.2 mi SSE 12.7 mph - N/A   Overcast
12:36 AM 33.8 °F 27.0 °F 32.0 °F 93% 29.60 in 1.0 mi South 8.1 mph - N/A   Overcast
12:56 AM 33.8 °F 25.3 °F 32.0 °F 93% 29.60 in 1.0 mi South 11.5 mph - N/A   Overcast
1:15 AM 33.8 °F 25.3 °F 32.0 °F 93% 29.59 in 0.8 mi South 11.5 mph - N/A   Overcast
1:36 AM 33.8 °F 25.3 °F 32.0 °F 93% 29.58 in 0.5 mi South 11.5 mph - N/A Fog Fog
1:56 AM 33.8 °F 24.8 °F 32.0 °F 93% 29.58 in 0.5 mi South 12.7 mph - N/A Fog Fog
2:15 AM 33.8 °F 24.8 °F 32.0 °F 93% 29.59 in 0.2 mi South 12.7 mph - N/A Fog Fog
2:36 AM 33.8 °F 25.8 °F 32.0 °F 93% 29.58 in 0.5 mi South 10.4 mph - N/A Fog Fog
2:56 AM 33.8 °F 25.8 °F 32.0 °F 93% 29.56 in 0.5 mi South 10.4 mph - N/A Fog Fog
3:15 AM 33.8 °F 25.8 °F 32.0 °F 93% 29.56 in 0.5 mi South 10.4 mph - N/A Fog Fog
3:36 AM 33.8 °F 25.8 °F 32.0 °F 93% 29.55 in 0.5 mi South 10.4 mph - N/A Fog Fog
3:55 AM 33.8 °F 25.8 °F 32.0 °F 93% 29.54 in 0.5 mi South 10.4 mph - N/A Fog Fog
4:16 AM 33.8 °F 25.8 °F 32.0 °F 93% 29.53 in 0.5 mi South 10.4 mph - N/A Fog Fog
4:36 AM 33.8 °F 25.8 °F 32.0 °F 93% 29.54 in 0.5 mi South 10.4 mph - N/A Fog Fog
4:55 AM 33.8 °F 26.4 °F 32.0 °F 93% 29.52 in 0.5 mi South 9.2 mph - N/A Fog Fog
5:16 AM 33.8 °F 26.4 °F 32.0 °F 93% 29.50 in 0.5 mi South 9.2 mph - N/A Fog Fog
5:36 AM 33.8 °F 25.8 °F 32.0 °F 93% 29.49 in 0.5 mi South 10.4 mph - N/A Fog Fog
5:55 AM 33.8 °F 27.0 °F 32.0 °F 93% 29.49 in 0.5 mi South 8.1 mph - N/A Fog Fog
6:16 AM 33.8 °F 25.8 °F 32.0 °F 93% 29.50 in 0.8 mi South 10.4 mph - N/A   Overcast
6:55 AM 33.8 °F 25.3 °F 32.0 °F 93% 29.48 in 0.8 mi South 11.5 mph - N/A   Overcast
7:16 AM 33.8 °F 25.3 °F 32.0 °F 93% 29.49 in 0.8 mi South 11.5 mph - N/A   Light Drizzle
7:35 AM 33.8 °F 24.3 °F 32.0 °F 93% 29.49 in 0.8 mi South 13.8 mph - N/A   Overcast
7:56 AM 33.8 °F 25.8 °F 32.0 °F 93% 29.49 in 0.5 mi South 10.4 mph - N/A Fog Fog
8:16 AM 33.8 °F 27.0 °F 32.0 °F 93% 29.50 in 0.5 mi South 8.1 mph - N/A Fog Fog
8:35 AM 33.8 °F 25.8 °F 32.0 °F 93% 29.49 in 0.5 mi South 10.4 mph - N/A Fog Fog
8:56 AM 33.8 °F 25.3 °F 32.0 °F 93% 29.49 in 0.8 mi SSW 11.5 mph - N/A   Overcast
9:16 AM 33.8 °F 27.0 °F 32.0 °F 93% 29.49 in 0.8 mi South 8.1 mph - N/A Rain Light Rain
9:35 AM 33.8 °F 27.0 °F 32.0 °F 93% 29.48 in 1.0 mi South 8.1 mph - N/A   Overcast
9:56 AM 33.8 °F 26.4 °F 32.0 °F 93% 29.47 in 0.8 mi South 9.2 mph - N/A   Overcast
10:16 AM 33.8 °F 25.8 °F 32.0 °F 93% 29.46 in 0.5 mi South 10.4 mph - N/A Fog Fog
10:35 AM 33.8 °F 27.0 °F 32.0 °F 93% 29.46 in 0.2 mi South 8.1 mph - N/A Fog Fog
10:56 AM 33.8 °F 27.0 °F 32.0 °F 93% 29.44 in 0.2 mi South 8.1 mph - N/A Fog Fog
11:15 AM 33.8 °F 26.4 °F 32.0 °F 93% 29.44 in 0.2 mi South 9.2 mph - N/A Fog Fog
11:36 AM 33.8 °F 25.3 °F 32.0 °F 93% 29.43 in 0.2 mi South 11.5 mph - N/A Fog Fog
11:56 AM 33.8 °F 26.4 °F 32.0 °F 93% 29.41 in 0.2 mi South 9.2 mph - N/A   Light Drizzle
12:15 PM 33.8 °F 27.0 °F 32.0 °F 93% 29.41 in 0.2 mi South 8.1 mph - N/A Fog Fog
12:36 PM 33.8 °F 27.7 °F 33.8 °F 100% 29.39 in 0.2 mi South 6.9 mph - N/A   Light Drizzle
12:56 PM 35.6 °F 29.9 °F 33.8 °F 93% 29.38 in 0.2 mi South 6.9 mph - N/A   Light Drizzle
1:15 PM 35.6 °F 28.6 °F 33.8 °F 93% 29.37 in 0.5 mi South 9.2 mph - N/A Rain Light Rain
1:36 PM 35.6 °F 29.2 °F 33.8 °F 93% 29.36 in 0.5 mi South 8.1 mph - N/A Fog Fog
2:15 PM 35.6 °F 29.2 °F 33.8 °F 93% 29.36 in 0.2 mi South 8.1 mph - N/A Fog Fog
2:36 PM 35.6 °F 29.9 °F 33.8 °F 93% 29.36 in 0.2 mi South 6.9 mph - N/A Fog Fog
2:55 PM 35.6 °F 29.9 °F 33.8 °F 93% 29.36 in 0.2 mi South 6.9 mph - N/A Fog Fog
3:15 PM 33.8 °F 27.7 °F 33.8 °F 100% 29.35 in 0.2 mi South 6.9 mph - N/A Fog Fog
3:36 PM 33.8 °F 28.6 °F 33.8 °F 100% 29.36 in 0.2 mi SSW 5.8 mph - N/A Fog Fog
3:55 PM 33.8 °F 30.8 °F 33.8 °F 100% 29.36 in 0.2 mi SSW 3.5 mph - N/A Fog Fog
4:16 PM 33.8 °F - 33.8 °F 100% 29.35 in 0.2 mi Calm Calm - N/A Fog Fog
4:35 PM 33.8 °F 29.6 °F 33.8 °F 100% 29.36 in 0.2 mi South 4.6 mph - N/A Fog Fog
4:56 PM 33.8 °F - 33.8 °F 100% 29.34 in 0.2 mi Calm Calm - N/A   Drizzle
5:16 PM 33.8 °F 27.7 °F 32.0 °F 93% 29.37 in 0.2 mi SW 6.9 mph - N/A Rain Light Rain
5:35 PM 33.8 °F 27.7 °F 33.8 °F 100% 29.38 in 0.8 mi SW 6.9 mph - N/A   Drizzle
5:56 PM 33.8 °F 26.4 °F 33.8 °F 100% 29.38 in 1.2 mi SW 9.2 mph - N/A Rain Rain
6:16 PM 33.8 °F 25.3 °F 33.8 °F 100% 29.39 in 2.0 mi WSW 11.5 mph - N/A   Drizzle
6:35 PM 33.8 °F 24.8 °F 33.8 °F 100% 29.38 in 1.5 mi West 12.7 mph - N/A   Overcast
6:56 PM 32.0 °F 20.8 °F 32.0 °F 100% 29.39 in 5.0 mi West 17.3 mph 20.7 mph N/A   Overcast
7:16 PM 32.0 °F 20.1 °F 32.0 °F 100% 29.41 in 10.0 mi West 19.6 mph 25.3 mph N/A   Overcast
7:35 PM 32.0 °F 20.1 °F 32.0 °F 100% 29.41 in 10.0 mi West 19.6 mph 24.2 mph N/A   Overcast
7:56 PM 32.0 °F 20.1 °F 30.2 °F 93% 29.42 in 10.0 mi West 19.6 mph 23.0 mph N/A   Overcast
8:15 PM 30.2 °F 19.8 °F 30.2 °F 100% 29.43 in 10.0 mi West 13.8 mph - N/A   Overcast
8:35 PM 30.2 °F 17.8 °F 28.4 °F 93% 29.45 in 10.0 mi West 19.6 mph 26.5 mph N/A   Overcast
8:55 PM 28.4 °F 14.7 °F 28.4 °F 100% 29.46 in 10.0 mi West 21.9 mph 28.8 mph N/A   Overcast
9:16 PM 28.4 °F 13.5 °F 26.6 °F 93% 29.46 in 10.0 mi West 26.5 mph - N/A   Overcast
9:36 PM 26.6 °F 11.1 °F 24.8 °F 93% 29.46 in 10.0 mi WNW 26.5 mph 33.4 mph N/A   Overcast
9:55 PM 26.6 °F 10.6 °F 23.0 °F 86% 29.46 in 10.0 mi WNW 28.8 mph 35.7 mph N/A   Overcast
10:16 PM 24.8 °F 9.6 °F 21.2 °F 86% 29.46 in 10.0 mi WNW 23.0 mph 33.4 mph N/A   Overcast
10:36 PM 23.0 °F 8.0 °F 21.2 °F 93% 29.48 in 10.0 mi WNW 20.7 mph 29.9 mph N/A   Overcast
10:55 PM 23.0 °F 8.0 °F 21.2 °F 93% 29.52 in 10.0 mi West 20.7 mph 27.6 mph N/A   Overcast
11:16 PM 23.0 °F 7.6 °F 19.4 °F 86% 29.54 in 10.0 mi West 21.9 mph 28.8 mph N/A   Overcast
11:35 PM 23.0 °F 6.9 °F 19.4 °F 86% 29.54 in 10.0 mi West 24.2 mph 29.9 mph N/A   Overcast
11:55 PM 21.2 °F 5.2 °F 17.6 °F 86% 29.56 in 2.5 mi WNW 21.9 mph 27.6 mph N/A Snow Light Snow